TimeMST,TemperatureF,Dew PointF,Humidity,Sea Level PressureIn,VisibilityMPH,Wind Direction,Wind SpeedMPH,Gust SpeedMPH,PrecipitationIn,Events,Conditions,WindDirDegrees,DateUTC
12:53 AM,5.0,3.0,92,30.57,8.0,East,3.5,-,N/A,,Clear,80,2013-01-21 07:53:00
1:53 AM,5.0,3.9,95,30.56,7.0,East,4.6,-,N/A,,Clear,80,2013-01-21 08:53:00
2:53 AM,7.0,3.9,87,30.56,8.0,Calm,Calm,-,N/A,,Clear,0,2013-01-21 09:53:00
3:53 AM,3.9,1.9,91,30.56,9.0,Calm,Calm,-,N/A,,Clear,0,2013-01-21 10:53:00
4:53 AM,-0.0,-0.0,100,30.59,7.0,Calm,Calm,-,N/A,,Clear,0,2013-01-21 11:53:00
5:53 AM,6.1,3.9,91,30.59,9.0,ESE,4.6,-,N/A,,Clear,110,2013-01-21 12:53:00
6:53 AM,10.9,7.0,84,30.58,10.0,East,5.8,-,N/A,,Clear,90,2013-01-21 13:53:00
7:53 AM,3.0,3.0,100,30.65,10.0,Calm,Calm,-,N/A,,Clear,0,2013-01-21 14:53:00
8:53 AM,8.1,3.9,83,30.64,10.0,East,3.5,-,N/A,,Clear,80,2013-01-21 15:53:00
9:53 AM,10.0,6.1,84,30.65,6.0,East,3.5,-,N/A,,Clear,100,2013-01-21 16:53:00
10:53 AM,19.9,10.0,65,30.63,7.0,Calm,Calm,-,N/A,,Clear,0,2013-01-21 17:53:00
11:53 AM,21.0,12.9,71,30.60,7.0,Calm,Calm,-,N/A,,Clear,0,2013-01-21 18:53:00
12:53 PM,28.9,15.1,56,30.52,10.0,Calm,Calm,-,N/A,,Clear,0,2013-01-21 19:53:00
1:53 PM,21.0,16.0,81,30.53,5.0,NW,3.5,-,N/A,,Haze,320,2013-01-21 20:53:00
2:53 PM,25.0,18.0,75,30.51,9.0,WNW,8.1,-,N/A,,Clear,290,2013-01-21 21:53:00
3:53 PM,21.0,15.1,78,30.53,9.0,NW,6.9,-,N/A,,Clear,310,2013-01-21 22:53:00
4:53 PM,19.0,12.9,77,30.54,10.0,NNW,5.8,-,N/A,,Clear,330,2013-01-21 23:53:00
5:53 PM,15.1,10.0,80,30.54,10.0,Calm,Calm,-,N/A,,Clear,0,2013-01-22 00:53:00
6:53 PM,8.1,5.0,87,30.57,10.0,Calm,Calm,-,N/A,,Clear,0,2013-01-22 01:53:00
7:53 PM,8.1,5.0,87,30.59,10.0,East,3.5,-,N/A,,Clear,90,2013-01-22 02:53:00
8:53 PM,3.9,1.9,91,30.60,10.0,Calm,Calm,-,N/A,,Clear,0,2013-01-22 03:53:00
9:53 PM,7.0,6.1,96,30.58,7.0,ENE,5.8,-,N/A,,Clear,70,2013-01-22 04:53:00
10:53 PM,10.9,7.0,84,30.55,8.0,Calm,Calm,-,N/A,,Clear,0,2013-01-22 05:53:00
11:53 PM,9.0,6.1,88,30.56,7.0,East,5.8,-,N/A,,Clear,80,2013-01-22 06:53:00